International Skating Union - Official Site

ISU World Cup Heerenveen
December 9-11, 2016

Draw | Lap Times | Index | World Cup

Referee: Karl  SKOOG  (SWE)
Starter: Roman  DANILOV  (RUS)
StartTime: EndTime: Air Temp: Ice Temp: Humidity:
18:58 19:24 14.6 ℃ -7.2 ℃ 32%
Result Team Pursuit Men
Rankings as of Dec 9 2016 9:13PM
Rank: No.: Team: Nation: Time: Behind: Points:
Total 10
1 2 Norway (113) Sverre Lunde Pedersen (111) Simen Spieler Nilsen (106) Sindre Henriksen (110) Håvard Holmefjord Lorentzen NOR NOR 3:42.430.5 - 17.46 - (17.4)
1.0 - 30.89 - (13.4)
1.5 - 44.42 - (13.5)
2.0 - 58.05 - (13.6)
2.5 - 1:11.64 - (13.5)
3.0 - 1:25.26 - (13.6)
3.5 - 1:39.01 - (13.7)
4.0 - 1:52.63 - (13.6)
4.5 - 2:06.47 - (13.8)
5.0 - 2:20.52 - (14.0)
5.5 - 2:34.26 - (13.7)
6.0 - 2:47.87 - (13.6)
6.5 - 3:01.41 - (13.5)
7.0 - 3:15.00 - (13.5)
7.5 - 3:28.64 - (13.6)
8.0 - 3:42.43 - (13.7)
100
2 1 Netherlands (86) Jan Blokhuijsen (88) Douwe de Vries (99) Patrick Roest (85) Jorrit Bergsma NED NED 3:43.040.5 - 17.57 - (17.5)
1.0 - 30.95 - (13.3)
1.5 - 44.46 - (13.5)
2.0 - 57.86 - (13.3)
2.5 - 1:11.31 - (13.4)
3.0 - 1:25.04 - (13.7)
3.5 - 1:38.81 - (13.7)
4.0 - 1:52.70 - (13.8)
4.5 - 2:06.63 - (13.9)
5.0 - 2:20.38 - (13.7)
5.5 - 2:34.18 - (13.8)
6.0 - 2:47.77 - (13.5)
6.5 - 3:01.39 - (13.6)
7.0 - 3:15.26 - (13.8)
7.5 - 3:29.14 - (13.8)
8.0 - 3:43.04 - (13.9)
0.61 80
3 4 Italy (55) Andrea Giovannini (59) Nicola Tumolero (56) Michele Malfatti (58) Luca Stefani ITA ITA 3:43.530.5 - 17.82 - (17.8)
1.0 - 31.45 - (13.6)
1.5 - 44.89 - (13.4)
2.0 - 58.45 - (13.5)
2.5 - 1:12.05 - (13.5)
3.0 - 1:25.60 - (13.5)
3.5 - 1:39.27 - (13.6)
4.0 - 1:52.81 - (13.5)
4.5 - 2:06.67 - (13.8)
5.0 - 2:20.33 - (13.6)
5.5 - 2:34.01 - (13.6)
6.0 - 2:47.86 - (13.8)
6.5 - 3:01.79 - (13.9)
7.0 - 3:15.65 - (13.8)
7.5 - 3:29.56 - (13.9)
8.0 - 3:43.53 - (13.9)
1.10 70
4 8 Japan (65) Shota Nakamura (70) Shane Williamson (69) Ryosuke Tsuchiya (67) Masahito Obayashi JPN JPN 3:43.760.5 - 17.34 - (17.3)
1.0 - 30.78 - (13.4)
1.5 - 44.21 - (13.4)
2.0 - 57.81 - (13.6)
2.5 - 1:11.43 - (13.6)
3.0 - 1:25.17 - (13.7)
3.5 - 1:39.07 - (13.8)
4.0 - 1:52.68 - (13.6)
4.5 - 2:06.44 - (13.7)
5.0 - 2:20.43 - (13.9)
5.5 - 2:34.11 - (13.6)
6.0 - 2:47.92 - (13.8)
6.5 - 3:01.78 - (13.8)
7.0 - 3:15.78 - (14.0)
7.5 - 3:29.84 - (14.0)
8.0 - 3:43.76 - (13.9)
1.33 60
5 7 Canada (12) Ted-Jan Bloemen (11) Jordan Belchos (18) Denny Morrison CAN CAN 3:44.620.5 - 17.80 - (17.8)
1.0 - 31.07 - (13.2)
1.5 - 44.17 - (13.1)
2.0 - 57.61 - (13.4)
2.5 - 1:10.98 - (13.3)
3.0 - 1:24.59 - (13.6)
3.5 - 1:38.40 - (13.8)
4.0 - 1:51.99 - (13.5)
4.5 - 2:05.71 - (13.7)
5.0 - 2:19.60 - (13.8)
5.5 - 2:33.43 - (13.8)
6.0 - 2:47.49 - (14.0)
6.5 - 3:01.63 - (14.1)
7.0 - 3:15.98 - (14.3)
7.5 - 3:30.25 - (14.2)
8.0 - 3:44.62 - (14.3)
2.19 50
6 12 New Zealand (117) Reyon Kay (116) Shane Dobbin (118) Peter Michael NZL NZL 3:46.120.5 - 18.38 - (18.3)
1.0 - 31.93 - (13.5)
1.5 - 45.43 - (13.5)
2.0 - 59.30 - (13.8)
2.5 - 1:13.32 - (14.0)
3.0 - 1:27.42 - (14.1)
3.5 - 1:41.29 - (13.8)
4.0 - 1:55.10 - (13.8)
4.5 - 2:08.93 - (13.8)
5.0 - 2:22.70 - (13.7)
5.5 - 2:36.53 - (13.8)
6.0 - 2:50.34 - (13.8)
6.5 - 3:04.31 - (13.9)
7.0 - 3:18.16 - (13.8)
7.5 - 3:32.13 - (13.9)
8.0 - 3:46.12 - (13.9)
3.69 45
7 3 Poland (124) Konrad Niedzwiedzki (120) Zbigniew Bródka (126) Jan Szymanski (128) Adrian Wielgat POL POL 3:47.890.5 - 17.58 - (17.5)
1.0 - 31.23 - (13.6)
1.5 - 44.62 - (13.3)
2.0 - 58.21 - (13.5)
2.5 - 1:11.68 - (13.4)
3.0 - 1:25.34 - (13.6)
3.5 - 1:39.04 - (13.7)
4.0 - 1:53.08 - (14.0)
4.5 - 2:07.26 - (14.1)
5.0 - 2:21.32 - (14.0)
5.5 - 2:35.46 - (14.1)
6.0 - 2:49.93 - (14.4)
6.5 - 3:04.01 - (14.0)
7.0 - 3:18.19 - (14.1)
7.5 - 3:32.57 - (14.3)
8.0 - 3:47.89 - (15.3)
5.46 40
8 11 China (24) Yiming Liu (26) Rehanbai Talabuhan (31) Jiafan Zhu CHN CHN 3:55.660.5 - 18.21 - (18.2)
1.0 - 32.14 - (13.9)
1.5 - 46.00 - (13.8)
2.0 - 1:00.20 - (14.2)
2.5 - 1:14.35 - (14.1)
3.0 - 1:28.85 - (14.5)
3.5 - 1:43.16 - (14.3)
4.0 - 1:57.65 - (14.4)
4.5 - 2:11.98 - (14.3)
5.0 - 2:26.66 - (14.6)
5.5 - 2:41.46 - (14.8)
6.0 - 2:56.46 - (15.0)
6.5 - 3:11.28 - (14.8)
7.0 - 3:26.36 - (15.0)
7.5 - 3:40.91 - (14.5)
8.0 - 3:55.66 - (14.7)
13.23 35
9 10 USA (153) Emery Lehman (152) Brian Hansen (154) Joey Mantia (156) Jeffery Swider-Peltz USA USA 4:01.830.5 - 18.26 - (18.2)
1.0 - 31.88 - (13.6)
1.5 - 45.41 - (13.5)
2.0 - 58.86 - (13.4)
2.5 - 1:12.69 - (13.8)
3.0 - 1:26.36 - (13.6)
3.5 - 1:42.69 - (16.3)
4.0 - 1:59.63 - (16.9)
4.5 - 2:16.16 - (16.5)
5.0 - 2:31.69 - (15.5)
5.5 - 2:46.82 - (15.1)
6.0 - 3:01.54 - (14.7)
6.5 - 3:16.61 - (15.0)
7.0 - 3:31.59 - (14.9)
7.5 - 3:46.58 - (14.9)
8.0 - 4:01.83 - (15.2)
19.40 30
10 6 Russia (142) Denis Yuskov (138) Danila Semerikov (140) Sergey Trofimov (130) Sergey Gryaztsov RUS RUS DNF0.5 - 18.00 - (18.0)
1.0 - 31.20 - (13.1)
1.5 - 1:10.91 - (39.7)
0